[[{"header":{"parameterUnit":"m.s-1","parameterCategory":1,"la1":30.2991,"la2":30.254,"lo1":-89.0895,"lo2":-89.0444,"dy":0.0017,"dx":0.0017,"nx":28,"ny":28,"refTime":"2024-10-11T21:00:00:Z","depth":0,"parameterNumber":2,"parameterNumberName":"U-component_of_WINDS"},"data":[0,0,0,0,0,0,0,0,0,0,0,0,0,0,0,0,0,0,0,0,0,0,0,0,0,0,0,0,0,0,0,0,0,0,0,0,0,0,0,0,0,0,0,0,0,0,0,0,0,0,0,0,0,0,0,0,0,0,-0.5356,-0.5357,0,-0.5401,-0.5402,-0.5402,-0.5376,-0.5374,-0.5373,-0.5372,-0.5422,-0.5425,-0.5427,0,0,0,0,0,0,0,0,0,0,0,0,0,-0.5252,-0.5254,-0.5356,-0.5357,-0.5357,-0.5401,-0.5402,-0.5402,-0.5376,-0.5374,-0.5373,-0.5371,-0.5422,-0.5425,-0.5428,0,0,0,0,0,0,0,0,0,0,0,0,0,-0.5297,-0.5255,-0.5356,-0.5349,-0.5349,-0.5401,-0.5402,-0.5402,-0.5376,-0.5374,-0.5372,-0.5371,-0.5421,-0.5424,-0.5428,-0.549,0,0,-0.544,-0.5441,0,0,0,0,0,0,0,0,-0.5295,-0.5301,-0.535,-0.535,-0.535,-0.5381,-0.5383,-0.5432,-0.5377,-0.5366,-0.5372,-0.537,-0.541,-0.5415,-0.5428,-0.5493,-0.5495,-0.544,-0.5442,-0.5444,-0.5445,0,0,0,0,0,0,0,-0.5292,-0.5299,-0.5374,-0.535,-0.535,-0.5345,-0.535,-0.5393,-0.5399,-0.5367,-0.5365,-0.537,-0.541,-0.5424,-0.5429,-0.5496,-0.544,-0.5443,-0.5446,-0.5447,-0.5616,-0.5618,0,0,0,0,0,0,-0.5288,-0.5297,-0.5373,-0.5375,-0.5317,-0.5349,-0.5354,-0.5373,-0.5398,-0.54,-0.5372,-0.5369,-0.5419,-0.5424,-0.543,-0.5506,-0.5444,-0.5448,-0.545,-0.5614,-0.5616,-0.5619,0,0,0,0,0,0,-0.5286,-0.5295,-0.5371,-0.5335,-0.5345,-0.5353,-0.5374,-0.5375,-0.5389,-0.5402,-0.5403,-0.5385,-0.5417,-0.5425,-0.5476,-0.5507,-0.5449,-0.5453,-0.5611,-0.5614,-0.5617,-0.5657,0,0,0,0,0,0,-0.5283,-0.5295,-0.5317,-0.5336,-0.5347,-0.5414,-0.5376,-0.5377,-0.5395,-0.5391,-0.5415,-0.5417,-0.5416,-0.547,-0.548,-0.5512,-0.5456,-0.5608,-0.5612,-0.5616,-0.5653,-0.5661,-0.5668,0,0,0,0,0,-0.528,-0.5327,-0.5319,-0.5328,-0.5375,-0.5416,-0.5422,-0.5419,-0.5397,-0.5421,-0.543,-0.5416,-0.5502,-0.5476,-0.5486,-0.552,-0.5606,-0.5611,-0.5616,-0.5649,-0.5659,-0.5668,0,0,0,0,0,0,-0.5314,-0.533,-0.532,-0.5375,-0.5394,-0.5411,-0.5441,-0.543,-0.5457,-0.5453,-0.545,-0.5455,-0.5508,-0.5519,-0.5489,-0.5582,-0.5551,-0.5558,-0.5573,-0.5583,-0.559,-0.5587,-0.5459,0,0,0,0,0,-0.5327,-0.5358,-0.5371,-0.5418,-0.5428,-0.5433,-0.545,-0.5447,-0.5467,-0.5475,-0.5488,-0.5509,-0.5541,-0.5562,-0.5593,-0.5654,-0.566,-0.5683,-0.569,-0.5696,-0.5703,-0.5738,-0.5748,-0.5635,-0.5635,-0.5635,0,0,-0.5356,-0.5369,-0.5388,-0.5425,-0.5439,-0.5472,-0.544,-0.5476,-0.5501,-0.5481,-0.5529,-0.554,-0.5563,-0.562,-0.5646,-0.5631,-0.5736,-0.5703,-0.5708,-0.5711,-0.5744,-0.5755,-0.5764,-0.5638,-0.5637,-0.5637,0,0,-0.5426,-0.5438,-0.5479,-0.5494,-0.5515,-0.5518,-0.5528,-0.5547,-0.5552,-0.5601,-0.5587,-0.5617,-0.5672,-0.569,-0.5706,-0.5783,-0.5772,-0.5793,-0.5834,-0.5868,-0.5877,-0.5885,-0.5913,-0.5923,-0.58,-0.58,-0.58,0,-0.546,-0.5507,-0.5502,-0.5539,-0.5556,-0.5539,-0.5581,-0.5596,-0.5627,-0.564,-0.5623,-0.5692,-0.5707,-0.5768,-0.5786,-0.58,-0.5812,-0.5791,-0.5875,-0.5883,-0.5891,-0.5918,-0.5929,-0.5802,-0.5802,-0.5802,-0.5802,0,-0.5548,-0.5581,-0.5612,-0.5641,-0.5662,-0.5702,-0.5704,-0.5726,-0.5721,-0.5726,-0.5776,-0.5793,-0.5827,-0.5841,-0.5837,-0.5902,-0.5892,-0.5875,-0.5844,-0.5904,-0.593,-0.594,-0.5806,-0.5805,-0.5804,-0.5804,0,0,-0.564,-0.5666,-0.5677,-0.569,-0.5713,-0.574,-0.578,-0.5811,-0.5831,-0.5853,-0.5887,-0.5934,-0.5918,-0.5937,-0.5935,-0.5964,-0.6026,-0.5944,-0.5944,-0.5959,-0.61,-0.6113,-0.6125,-0.6018,-0.602,-0.6022,-0.6098,0,-0.5712,-0.5779,-0.5776,-0.584,-0.5872,-0.5856,-0.5891,-0.5909,-0.5916,-0.5945,-0.5953,-0.5986,-0.5963,-0.5974,-0.6002,-0.6012,-0.6054,-0.6006,-0.6052,-0.6053,-0.6047,-0.6139,-0.6153,-0.6224,-0.6108,-0.611,-0.6111,0,-0.5805,-0.5829,-0.5895,-0.5914,-0.5927,-0.5958,-0.5987,-0.6015,-0.6036,-0.6039,-0.606,-0.6053,-0.6095,-0.6063,-0.6121,-0.6089,-0.6108,-0.6115,-0.6118,-0.6123,-0.6086,-0.6147,-0.6247,-0.6258,-0.6127,-0.6126,-0.6124,0,-0.5866,-0.5916,-0.5962,-0.5974,-0.5996,-0.6019,-0.603,-0.6049,-0.6069,-0.6095,-0.6108,-0.6139,-0.6156,-0.6181,-0.6184,-0.616,-0.6244,-0.6211,-0.6249,-0.6249,-0.6268,-0.6267,-0.6373,-0.6278,-0.6278,-0.6278,-0.6278,0,-0.5947,-0.5989,-0.599,-0.6019,-0.6066,-0.6062,-0.6109,-0.6118,-0.6136,-0.6167,-0.6156,-0.6186,-0.6187,-0.6218,-0.6221,-0.627,-0.6278,-0.6282,-0.6283,-0.6284,-0.6283,-0.6296,-0.6292,-0.6281,-0.628,-0.6279,-0.6279,0,-0.6024,-0.6026,-0.6076,-0.6093,-0.6099,-0.6133,-0.6148,-0.6176,-0.6182,-0.6222,-0.6231,-0.624,-0.6276,-0.6281,-0.6324,-0.6326,-0.6385,-0.638,-0.6377,-0.6377,-0.6415,-0.6411,-0.6534,-0.655,-0.6444,-0.6445,-0.6446,0,-0.6076,-0.6107,-0.6128,-0.6147,-0.6159,-0.6191,-0.621,-0.6208,-0.623,-0.6257,-0.6282,-0.6317,-0.6345,-0.6404,-0.6416,-0.6449,-0.6445,-0.6486,-0.645,-0.6451,-0.6447,-0.6445,-0.6449,-0.6493,-0.6494,-0.6495,-0.6496,0,-0.6168,-0.6167,-0.6195,-0.6224,-0.6247,-0.627,-0.6291,-0.6308,-0.6309,-0.6334,-0.637,-0.6392,-0.6435,-0.6471,-0.6504,-0.6517,-0.6508,-0.6507,-0.6517,-0.6519,-0.6517,-0.652,-0.6397,-0.6504,-0.6503,-0.6503,-0.6502,-0.6502,-0.6234,-0.6262,-0.6281,-0.6312,-0.6328,-0.6348,-0.6376,-0.6384,-0.6414,-0.6448,-0.6446,-0.6486,-0.6508,-0.6551,-0.6566,-0.6599,-0.6586,-0.6601,-0.6605,-0.6609,-0.6614,-0.6511,-0.6605,-0.6605,-0.6605,-0.6605,-0.6605,0,-0.6326,-0.6337,-0.6366,-0.6396,-0.6422,-0.6409,-0.6432,-0.6455,-0.649,-0.651,-0.6538,-0.658,-0.6615,-0.6629,-0.6663,-0.6687,-0.6684,-0.6696,-0.6695,-0.6699,-0.6623,-0.6611,-0.6698,-0.6698,-0.6698,-0.6698,-0.6698,-0.6698,-0.6377,-0.6424,-0.6426,-0.648,-0.6491,-0.653,-0.6544,-0.6564,-0.658,-0.6628,-0.6656,-0.6664,-0.6683,-0.6718,-0.675,-0.6754,-0.6767,-0.6782,-0.6784,-0.6713,-0.6704,-0.6695,-0.6683,-0.6785,-0.6785,-0.6857,-0.6858,-0.6858]},{"header":{"parameterUnit":"m.s-1","parameterCategory":1,"la1":30.2991,"la2":30.254,"lo1":-89.0895,"lo2":-89.0444,"dy":0.0017,"dx":0.0017,"nx":28,"ny":28,"refTime":"2024-10-11T21:00:00:Z","depth":0,"parameterNumber":3,"parameterNumberName":"V-component_of_WINDS"},"data":[0,0,0,0,0,0,0,0,0,0,0,0,0,0,0,0,0,0,0,0,0,0,0,0,0,0,0,0,0,0,0,0,0,0,0,0,0,0,0,0,0,0,0,0,0,0,0,0,0,0,0,0,0,0,0,0,0,0,1.275,1.2749,0,1.2689,1.2689,1.2688,1.2657,1.2657,1.2657,1.2657,1.2591,1.259,1.2588,0,0,0,0,0,0,0,0,0,0,0,0,0,1.2834,1.2833,1.275,1.2749,1.2748,1.2689,1.2689,1.2688,1.2657,1.2657,1.2657,1.2657,1.2592,1.259,1.2588,0,0,0,0,0,0,0,0,0,0,0,0,0,1.2788,1.2832,1.275,1.2726,1.2723,1.269,1.2689,1.2687,1.2657,1.2657,1.2657,1.2657,1.2593,1.259,1.2588,1.2572,0,0,1.258,1.2579,0,0,0,0,0,0,0,0,1.2791,1.2785,1.273,1.2727,1.2724,1.2681,1.2694,1.2649,1.2657,1.2682,1.2657,1.2657,1.2621,1.2616,1.2605,1.2569,1.2566,1.2579,1.2578,1.2577,1.2576,0,0,0,0,0,0,0,1.2794,1.2787,1.2726,1.2729,1.2726,1.2717,1.271,1.2685,1.2652,1.268,1.2677,1.2671,1.2619,1.2607,1.2603,1.2566,1.258,1.2577,1.2576,1.2575,1.2513,1.2513,0,0,0,0,0,0,1.2801,1.279,1.2728,1.2724,1.2758,1.2715,1.2708,1.2695,1.2652,1.2646,1.2671,1.2669,1.2612,1.2606,1.26,1.2579,1.2577,1.2574,1.2573,1.2513,1.2513,1.2513,0,0,0,0,0,0,1.2803,1.2796,1.273,1.2756,1.2747,1.2714,1.2699,1.2693,1.2681,1.2646,1.2639,1.2665,1.2611,1.2604,1.2579,1.2576,1.2573,1.2571,1.2513,1.2513,1.2513,1.2536,0,0,0,0,0,0,1.2806,1.2797,1.2792,1.2756,1.2746,1.2712,1.2699,1.2692,1.2677,1.2675,1.2638,1.2632,1.2611,1.2583,1.2577,1.2573,1.2569,1.2513,1.2513,1.2513,1.2536,1.2537,1.2538,0,0,0,0,0,1.2809,1.2801,1.2792,1.2785,1.2739,1.2711,1.2705,1.2682,1.2677,1.2671,1.2648,1.2633,1.2578,1.2581,1.2573,1.2568,1.2513,1.2513,1.2513,1.2535,1.2537,1.2538,0,0,0,0,0,0,1.2836,1.2796,1.2786,1.2766,1.2742,1.2706,1.2698,1.2684,1.2661,1.2659,1.263,1.2622,1.26,1.2581,1.2586,1.255,1.2544,1.2542,1.2563,1.2565,1.2566,1.257,1.2567,0,0,0,0,0,1.284,1.2822,1.2787,1.2773,1.2762,1.2732,1.2719,1.2703,1.2677,1.2666,1.2641,1.2616,1.2592,1.2577,1.2554,1.2533,1.2523,1.2525,1.2527,1.2528,1.2526,1.2512,1.2512,1.2512,1.2512,1.2512,0,0,1.2847,1.2823,1.2813,1.2777,1.2757,1.2738,1.2724,1.2704,1.2689,1.2663,1.2638,1.2619,1.2588,1.2565,1.2554,1.2549,1.2524,1.2527,1.2529,1.2527,1.2512,1.2512,1.2512,1.2512,1.2512,1.2512,0,0,1.285,1.2831,1.2816,1.2796,1.2767,1.2747,1.2743,1.2709,1.2695,1.267,1.265,1.2631,1.2591,1.257,1.2554,1.2548,1.2533,1.2541,1.2547,1.2534,1.2534,1.2534,1.253,1.253,1.254,1.254,1.254,0,1.2863,1.2834,1.281,1.2792,1.2776,1.2752,1.2736,1.2718,1.2681,1.267,1.2666,1.2615,1.2593,1.2564,1.2562,1.255,1.2544,1.2545,1.2536,1.2536,1.2535,1.2532,1.2531,1.2541,1.2541,1.2541,1.2541,0,1.285,1.2831,1.2822,1.2789,1.2772,1.2755,1.2727,1.2712,1.2697,1.2677,1.2651,1.2623,1.2593,1.2585,1.257,1.2553,1.2551,1.2542,1.2534,1.2537,1.2533,1.2531,1.2542,1.2542,1.2542,1.2541,0,0,1.2869,1.2822,1.282,1.2803,1.2768,1.2752,1.2733,1.2704,1.2692,1.2667,1.2649,1.2616,1.2607,1.2589,1.257,1.2559,1.2554,1.2551,1.2549,1.2552,1.2533,1.254,1.2539,1.2544,1.2544,1.2544,1.2535,0,1.2867,1.2834,1.2811,1.2785,1.2766,1.2742,1.2725,1.2701,1.2682,1.2661,1.2639,1.2616,1.2606,1.2595,1.2582,1.2558,1.255,1.2558,1.2526,1.2525,1.2534,1.2537,1.2544,1.2537,1.2533,1.2533,1.2533,0,1.2861,1.2837,1.281,1.2776,1.2767,1.2752,1.2724,1.2705,1.2676,1.2662,1.2642,1.2623,1.26,1.2595,1.2562,1.2568,1.2553,1.2539,1.2538,1.2534,1.2529,1.2532,1.2535,1.2533,1.2531,1.2531,1.2531,0,1.2876,1.2838,1.2816,1.2803,1.2763,1.2753,1.2736,1.2707,1.2691,1.2665,1.2654,1.2626,1.261,1.2588,1.2562,1.2561,1.2531,1.2524,1.2518,1.2518,1.2512,1.2513,1.2512,1.2504,1.2504,1.2504,1.2504,0,1.2876,1.286,1.2823,1.281,1.279,1.2764,1.2745,1.2725,1.2699,1.2681,1.2658,1.2641,1.2608,1.2585,1.2565,1.254,1.2533,1.252,1.2515,1.2522,1.2523,1.2512,1.2511,1.2504,1.2504,1.2504,1.2504,0,1.289,1.2865,1.284,1.2804,1.2794,1.2782,1.275,1.2735,1.2714,1.2691,1.2683,1.265,1.2623,1.2595,1.2557,1.2543,1.2519,1.2512,1.2529,1.2526,1.2521,1.2522,1.2512,1.2509,1.2504,1.2504,1.2504,0,1.2892,1.2879,1.2841,1.2828,1.2811,1.279,1.2773,1.2745,1.2729,1.2694,1.2683,1.2655,1.263,1.2588,1.2559,1.253,1.2521,1.252,1.2517,1.2524,1.252,1.2521,1.2519,1.2521,1.2521,1.2522,1.2522,0,1.2896,1.2884,1.2862,1.2835,1.2816,1.2793,1.277,1.2759,1.2726,1.2709,1.2681,1.2662,1.2624,1.2596,1.2563,1.2543,1.2526,1.2523,1.252,1.2527,1.2537,1.2531,1.2531,1.2523,1.2523,1.2523,1.2523,1.2523,1.2903,1.2891,1.2862,1.2838,1.2817,1.2795,1.2779,1.2756,1.2733,1.2701,1.2686,1.2658,1.2627,1.2582,1.2562,1.2539,1.2534,1.253,1.2529,1.2528,1.2529,1.2541,1.2533,1.2533,1.2533,1.2533,1.2533,0,1.2906,1.2887,1.2865,1.2832,1.2813,1.28,1.2772,1.2756,1.2732,1.2706,1.2682,1.265,1.2621,1.2591,1.256,1.2547,1.2538,1.254,1.254,1.2535,1.2536,1.2541,1.2547,1.2547,1.2547,1.2547,1.2547,1.2547,1.2906,1.2883,1.2867,1.2833,1.2813,1.2787,1.2772,1.2751,1.2729,1.2695,1.2671,1.2652,1.2623,1.259,1.2562,1.2554,1.2543,1.2547,1.2536,1.2537,1.2536,1.2535,1.2539,1.2545,1.2545,1.2537,1.2537,1.2537]}]]